#timestamp,LO_Frequency,Hit,StdDev 
1588334415.1,286047002.3,N
1588334416.0,286047002.3,N
1588334435.8,286046999.7,N
1588334455.7,286047001.0,N
1588334475.5,286046998.5,N
1588334495.3,286046999.8,N
1588334515.2,286047001.9,N
1588334535.0,286047002.7,N
1588334535.9,286047002.7,N
1588334555.8,286047001.3,N
1588334575.6,286047004.0,N
1588334595.4,286047004.2,N
1588334615.3,286047001.5,N
1588334635.1,286047001.4,N
1588334655.9,286046998.1,N
1588334675.7,286046999.8,N
1588334695.5,286047002.2,N
1588334715.4,286047003.7,N
1588334735.2,286047003.9,N
1588334755.0,286047003.4,N
1588334756.0,286047003.4,N
1588334775.8,286047003.5,N
1588334795.6,286047005.7,Y
1588334815.5,286047001.4,P
1588334835.3,286047003.9,P
1588334855.1,286047001.6,N
1588334875.9,286047000.0,N
1588334895.7,286047002.0,N
1588334915.6,286047005.6,Y
1588334935.4,286047002.8,P
1588334955.2,286047000.5,N
1588334975.1,286047002.7,N
1588334976.0,286047002.7,N
1588334995.8,286047001.5,N
1588335015.7,286047000.0,N
1588335035.5,286047000.1,N
1588335055.3,286047000.0,N
1588335075.2,286046999.7,N
1588335095.0,286047004.2,Y
1588335095.9,286047004.2,P
1588335115.8,286047001.5,N
1588335135.6,286046998.2,N
1588335155.4,286047000.6,N
1588335175.3,286047002.7,N
1588335195.1,286047002.8,N
1588335215.8,286046998.6,N
1588335235.7,286047002.8,N
1588335255.5,286047000.7,N
1588335275.4,286047000.8,N
1588335295.2,286046998.7,N
1588335315.0,286046998.7,N
1588335315.9,286046998.7,N
1588335335.8,286047000.3,N
1588335355.6,286047002.0,N
1588335375.5,286047000.9,N
1588335395.3,286047000.2,N
1588335415.1,286047002.2,N
1588335435.9,286047004.2,N
1588335455.7,286047002.7,N
1588335475.5,286047000.3,N
1588335495.4,286047002.8,N
1588335515.2,286046998.3,N
1588335535.1,286047002.7,N
1588335536.0,286047002.7,N
1588335555.8,286047003.9,N
1588335575.7,286047005.1,N
1588335595.5,286047004.9,N
1588335615.3,286047004.9,N
1588335635.2,286047011.9,Y
1588335655.0,286047002.4,P
1588335655.9,286047002.4,P
1588335675.7,286047000.7,N
1588335695.6,286047000.1,N
1588335715.4,286047001.2,N
1588335735.3,286046998.1,N
1588335755.1,286047002.5,N
1588335775.8,286047002.5,N
1588335795.7,286047004.2,N
1588335815.5,286047000.1,N
1588335835.4,286047004.3,N
1588335855.2,286047004.1,N
1588335875.0,286047003.3,N
1588335875.9,286047003.3,N
1588335895.8,286047002.1,N
1588335915.6,286047003.9,N
1588335935.4,286047001.7,N
1588335955.3,286047003.2,N
1588335975.1,286047004.3,N
1588335995.9,286047002.8,N
1588336015.7,286047001.1,N
1588336035.5,286047001.2,N
1588336055.4,286047000.5,N
1588336075.2,286047002.1,N
1588336095.1,286047003.9,N
1588336096.0,286047003.9,N
1588336115.8,286047000.6,N
1588336135.6,286047001.0,N
1588336155.5,286047002.5,N
1588336175.3,286047001.7,N
1588336195.1,286047001.9,N
1588336215.9,286047002.6,N
1588336235.7,286047002.9,N
1588336255.6,286047002.5,N
1588336275.4,286047001.5,N
1588336295.2,286047003.9,N
1588336315.1,286047003.2,N
1588336316.0,286047003.2,N
1588336335.8,286047005.2,Y
1588336355.7,286046999.8,P
1588336375.5,286047000.0,N
1588336395.3,286046998.1,N
1588336415.2,286046997.0,N
1588336435.0,286046999.4,N
1588336435.9,286047011.9,Y
1588336455.8,286047002.2,P
1588336475.6,286046998.4,N
1588336495.4,286046999.1,N
1588336515.3,286046996.6,N
1588336535.1,286046997.0,N
1588336555.9,286046998.6,N
1588336575.7,286046998.1,N
1588336595.5,286047001.9,N
1588336615.4,286047004.3,N
1588336635.2,286047003.3,N
1588336655.0,286047003.6,N
1588336655.9,286047003.6,N
1588336675.8,286047004.0,N
1588336695.6,286047002.8,N
1588336715.5,286047002.2,N
1588336735.3,286047000.1,N
1588336755.1,286047002.3,N
1588336775.9,286047000.0,N
1588336795.7,286047001.2,N
1588336815.6,286047000.9,N
1588336835.4,286046999.3,N
1588336855.2,286046997.6,N
1588336875.1,286046997.9,N
1588336876.0,286046997.9,N
1588336895.8,286046996.6,N
1588336915.7,286046999.5,N
1588336935.5,286046995.0,N
1588336955.3,286046996.0,N
1588336975.2,286046998.0,N
1588336995.0,286046998.9,N
1588336995.9,286046998.9,N
1588337015.7,286046999.5,N
1588337035.6,286046998.0,N
1588337055.4,286046996.9,N
1588337075.3,286046998.2,N
1588337095.1,286047000.6,N
1588337096.0,286047000.6,N
1588337115.8,286046998.7,N
1588337135.7,286046995.4,N
1588337155.5,286046993.6,N
1588337175.4,286046995.0,N
1588337195.2,286047000.7,N
1588337215.0,286046999.2,N
1588337215.9,286046999.2,N
1588337235.8,286046997.0,N
1588337255.6,286046998.8,N
1588337275.4,286046999.7,N
1588337295.3,286047002.1,N
1588337315.1,286047000.2,N
1588337335.9,286047002.3,N
1588337355.7,286047000.4,N
1588337375.5,286047000.3,N
1588337395.4,286047000.9,N
1588337415.2,286046998.2,N
1588337435.1,286046999.0,N
1588337436.0,286046999.0,N
1588337455.8,286046996.8,N
1588337475.6,286046997.6,N
1588337495.5,286046996.7,N
1588337515.3,286046995.5,N
1588337535.1,286046996.3,N
1588337555.9,286046995.1,N
1588337575.7,286046995.5,N
1588337595.6,286046997.6,N
1588337615.4,286046997.1,N
1588337635.2,286046999.6,N
1588337655.1,286046996.5,N
1588337656.0,286046996.5,N
1588337675.8,286046996.6,N
1588337695.7,286046998.2,N
1588337715.5,286046998.3,N
1588337735.3,286046999.1,N
1588337755.2,286046999.1,N
1588337775.0,286046997.7,N
1588337775.9,286046997.7,N
1588337795.8,286046997.0,N
1588337815.6,286046995.6,N
1588337835.4,286046995.1,N
1588337855.3,286046997.2,N
1588337875.1,286046997.7,N
1588337895.8,286046996.3,N
1588337915.7,286046995.7,N
1588337935.5,286046996.6,N
1588337955.4,286046996.8,N
1588337975.2,286046995.2,Y
1588337995.0,286046997.3,P
1588337995.9,286046997.3,P
